Tracking 22780 objects as of 11-Apr-2021
HD Live streaming from Space Station
objects crossing your sky now

EKRAN 15

Track EKRAN 15 now!
EKRAN 15 is classified as:


NORAD ID: 16729
Int'l Code: 1986-038A
Perigee: 36,819.1 km
Apogee: 36,923.4 km
Inclination: 14.5 °
Period: 1,491.5 minutes
Semi major axis: 43242 km
RCS: 5.2216 m2 (large)
Launch date: May 24, 1986
Source: Commonwealth of Independent States (former USSR) (CIS)
Launch site: TYURATAM MISSILE AND SPACE COMPLEX (TTMTR)
aabbcc
Your satellite tracking list
Your tracking list is empty




NASA's NSSDC Master Catalog

Two Line Element Set (TLE):
1 16729U 86038A   21100.83781130 -.00000136  00000-0  00000+0 0  9995
2 16729  14.4668 336.3776 0012059 356.0930 187.4331  0.96547336100072
Source of the keplerian elements: AFSPC